www.pogodaiklimat.ru

Погода и климат >> Архив погоды >> Австралия >> Bourke Airport Aws


ПОГОДА в Bourke Airport Aws

  • Прогноз погоды в Bourke Airport Aws
  • Монитор погоды в Bourke Airport Aws
  • Климат города

АРХИВ ПОГОДЫ в Bourke Airport Aws

Время (UTC), дата Ветер
(напр.,м/с)
 
Видим.   Явления Облачность Т
(С)
Тd
(С)
f
(%)
Тe
(С)
Тes
(С)
Комфортность P
(гПа)
Po
(гПа)
Тmin
(С)
Tmax
(С)
R
(мм)
R24
(мм)
S
(см)
04 12.08 ЮЗ 2 н/о н/о +20.1 -2.3 22 +21 +21 комфорт 1021.7 1008.7
05 12.08 ЮЗ 2 н/о н/о +20.9 -3.6 19 +21 +21 комфорт 1021.4 1008.4
06 12.08 Ю 2 н/о н/о +20.5 -5.4 17 +21 +21 комфорт 1021.4 1008.4
08 12.08 ЮЗ 2 н/о н/о +17.2 -4.7 22 +18 +18 1021.9 1008.9
07 12.08 З 3 н/о н/о +20.8 -5.1 17 +21 +21 комфорт 1021.4 1008.4
09 12.08 штиль 0 н/о н/о +12.4 -4.7 30 +12 +12 1022.4 1009.4
10 12.08 штиль 0 н/о н/о +9.3 -4.6 37 +9 +9 1022.6 1009.6
11 12.08 штиль 0 н/о н/о +8.4 -3.1 44 +8 +8 1022.8 1009.8
12 12.08 штиль 0 н/о н/о +7.0 -3.8 46 +7 +7 1022.7 1009.7
14 12.08 ЮВ 2 н/о н/о +5.9 -1.3 60 +4 +4 1022.8 1009.8 +21.5
13 12.08 штиль 0 н/о н/о +6.1 -3.3 51 +6 +6 1022.8 1009.8
15 12.08 штиль 0 н/о н/о +3.9 -3.8 57 +3 +3 1022.8 1009.8
16 12.08 штиль 0 н/о н/о +3.7 -3.1 61 +3 +3 1022.5 1009.5
17 12.08 штиль 0 н/о н/о +2.8 -3.7 62 +2 +2 1022.2 1009.2
18 12.08 СВ 1 н/о н/о +2.8 -3.3 64 +3 +3 1022.4 1009.4
20 12.08 штиль 0 н/о н/о +0.7 -4.3 69 -0 -0 1022.8 1009.8
19 12.08 ЮВ 2 н/о н/о +1.6 -3.1 71 -1 -1 1022.5 1009.5
21 12.08 В 3 н/о н/о +10.7 -3.0 38 +10 +10 1023.3 1010.3
22 12.08 СВ 2 н/о н/о +8.3 -1.2 51 +7 +7 1024.0 1011.0
23 12.08 СВ 4 н/о н/о +13.7 -1.9 34 +13 +13 1024.0 1011.0
00 13.08 СВ 4 н/о н/о +16.9 -1.7 28 +16 +16 1024.0 1011.0
02 13.08 С 3 н/о н/о +20.6 -2.5 21 +21 +21 комфорт 1023.4 1010.4 -0.1
01 13.08 С 4 н/о н/о +19.5 -1.6 24 +20 +20 1024.0 1011.0
03 13.08 С 2 н/о н/о +21.5 -3.1 19 +21 +21 комфорт 1022.0 1009.0
04 13.08 ЮВ 2 н/о н/о +23.3 -3.1 17 +22 +22 комфорт 1020.9 1007.9
05 13.08 С 3 н/о н/о +22.7 -6.1 14 +21 +21 комфорт 1020.1 1007.1
06 13.08 СЗ 3 н/о н/о +22.2 -6.5 14 +21 +21 комфорт 1020.3 1007.3
08 13.08 Ю 3 н/о н/о +19.0 -3.8 21 +19 +19 1020.8 1007.8
07 13.08 СЗ 2 н/о н/о +21.6 -5.3 16 +20 +20 1020.2 1007.2
09 13.08 Ю 3 н/о н/о +16.2 -3.3 26 +16 +16 1020.9 1007.9
10 13.08 Ю 2 н/о н/о +13.3 -3.4 31 +13 +13 1021.5 1008.5
11 13.08 ЮВ 2 н/о н/о +11.6 -2.2 38 +11 +11 1021.3 1008.3
12 13.08 ЮВ 2 н/о н/о +12.8 -2.3 35 +12 +12 1021.4 1008.4
14 13.08 штиль 0 н/о н/о +11.8 -1.0 41 +12 +12 1021.0 1008.0 +23.7
13 13.08 штиль 0 н/о н/о +11.8 -2.0 38 +12 +12 1021.2 1008.2
15 13.08 СВ 2 н/о н/о +12.0 -1.2 40 +11 +11 1020.5 1007.5
16 13.08 С 2 н/о н/о +11.6 -1.2 41 +11 +11 1020.1 1007.1
17 13.08 В 3 н/о н/о +12.0 -1.9 38 +11 +11 1019.5 1006.5
18 13.08 штиль 0 н/о н/о +10.8 -0.9 44 +11 +11 1020.1 1007.1
20 13.08 В 2 н/о н/о +9.4 -0.2 51 +8 +8 1020.4 1007.4
19 13.08 В 2 н/о н/о +11.0 -0.2 46 +11 +11 1020.3 1007.3
21 13.08 СВ 2 н/о н/о +9.8 -0.4 49 +9 +9 1020.7 1007.7
22 13.08 СВ 2 н/о н/о +12.6 -0.6 40 +13 +13 1020.9 1007.9
23 13.08 С 4 н/о н/о +17.5 -2.2 26 +17 +17 1020.8 1007.8
00 14.08 С 4 н/о н/о +21.1 -2.7 20 +20 +20 1020.5 1007.5
02 14.08 С 4 н/о н/о +24.9 -3.5 15 +23 +23 комфорт 1019.2 1006.2 +9.4
01 14.08 СЗ 3 н/о н/о +23.5 -2.2 18 +22 +22 комфорт 1020.5 1007.5
03 14.08 З 3 н/о н/о +26.9 -1.9 15 +25 +25 комфорт 1017.7 1004.8
04 14.08 СЗ 3 н/о н/о +26.9 -1.0 16 +25 +25 комфорт 1017.2 1004.3
05 14.08 З 3 н/о н/о +27.9 -1.1 15 +25 +25 комфорт 1016.5 1003.6
06 14.08 ЮЗ 3 н/о н/о +26.8 -1.1 16 +25 +25 комфорт 1016.3 1003.4
08 14.08 Ю 3 н/о н/о +22.0 +0.5 24 +21 +21 комфорт 1016.9 1004.0
07 14.08 Ю 3 н/о н/о +26.1 -0.8 17 +24 +24 комфорт 1016.5 1003.6
09 14.08 В 1 н/о н/о +19.5 +0.5 28 +21 +21 комфорт 1017.0 1004.1
10 14.08 ЮВ 3 н/о н/о +17.4 +0.6 32 +18 +18 1017.3 1004.4
11 14.08 В 2 н/о н/о +15.5 +0.9 37 +16 +16 1017.7 1004.8
12 14.08 СВ 3 н/о н/о +14.0 -0.1 38 +13 +13 1017.2 1004.3
14 14.08 СВ 3 н/о н/о +13.9 +0.5 40 +13 +13 1016.4 1003.5 +28.0
13 14.08 СВ 3 н/о н/о +13.9 +0.5 40 +13 +13 1017.1 1004.2
15 14.08 СВ 3 н/о н/о +13.0 +0.1 41 +12 +12 1015.9 1003.0
16 14.08 С 4 н/о н/о +13.1 +0.5 42 +12 +12 1015.4 1002.5
17 14.08 СВ 3 н/о н/о +14.5 +0.4 38 +14 +14 1014.9 1002.0
18 14.08 С 4 н/о н/о +15.8 0.0 34 +15 +15 1014.5 1001.6
20 14.08 СВ 3 н/о н/о +14.3 +0.6 39 +14 +14 1014.6 1001.7
19 14.08 С 3 н/о н/о +16.8 0.0 32 +17 +17 1014.5 1001.6
21 14.08 С 3 н/о н/о +12.3 +0.4 44 +11 +11 1015.0 1002.1
22 14.08 С 2 н/о н/о +17.6 +1.2 33 +18 +18 1015.2 1002.3
23 14.08 С 5 н/о н/о +23.4 +0.5 22 +22 +22 комфорт 1015.3 1002.4
00 15.08 С 7 н/о н/о +26.2 -0.8 17 +24 +24 комфорт 1014.5 1001.6
02 15.08 СЗ 8 н/о н/о +30.5 0.0 14 +28 +28 жарко 1012.3 999.4 +12.0
01 15.08 С 7 н/о н/о +28.8 -1.3 14 +26 +26 жарко 1013.8 1000.9
03 15.08 СЗ 8 н/о н/о +31.4 -1.4 12 +28 +28 жарко 1010.7 997.8
04 15.08 СЗ 8 н/о н/о +32.4 -0.6 12 +29 +29 жарко 1009.3 996.5
05 15.08 СЗ 8 н/о н/о +32.8 -0.3 12 +29 +29 жарко 1008.3 995.5
06 15.08 СЗ 8 н/о н/о +32.3 -0.7 12 +29 +29 жарко 1007.6 994.8
08 15.08 СЗ 5 н/о н/о +29.0 -2.2 13 +26 +26 жарко 1007.5 994.7
07 15.08 СЗ 7 н/о н/о +31.5 -1.3 12 +28 +28 жарко 1007.4 994.6
09 15.08 С 3 н/о н/о +24.1 -3.3 16 +22 +22 комфорт 1007.6 994.8
10 15.08 С 3 н/о н/о +22.0 -2.7 19 +21 +21 комфорт 1007.9 995.1
11 15.08 С 4 н/о н/о +22.4 -2.3 19 +21 +21 комфорт 1007.9 995.1
12 15.08 С 4 н/о н/о +21.6 -2.3 20 +21 +21 комфорт 1007.6 994.8
14 15.08 СЗ 5 н/о н/о +21.9 -3.5 18 +21 +21 комфорт 1007.1 994.3 +33.4
13 15.08 СЗ 4 н/о н/о +21.1 -3.4 19 +20 +20 1007.4 994.6
15 15.08 СЗ 5 н/о н/о +21.0 -3.5 19 +21 +21 комфорт 1006.8 994.0
16 15.08 С 5 н/о н/о +19.7 -3.2 21 +19 +19 1006.2 993.4
17 15.08 СЗ 5 н/о н/о +20.8 -2.3 21 +21 +21 комфорт 1005.4 992.6
18 15.08 СЗ 5 н/о н/о +20.0 -2.3 22 +20 +20 1005.1 992.3
20 15.08 СЗ 5 н/о н/о +20.8 -2.3 21 +21 +21 комфорт 1006.8 994.0
19 15.08 С 4 н/о н/о +18.3 -2.6 24 +18 +18 1005.3 992.5
21 15.08 ЮЗ 5 н/о н/о +17.4 -2.3 26 +17 +17 1009.2 996.4
22 15.08 Ю 5 н/о н/о +17.1 +9.0 59 +16 +16 1010.7 997.8
23 15.08 Ю 4 н/о н/о +19.0 +9.2 53 +20 +20 1011.3 998.4
00 16.08 ЮЗ 5 н/о н/о +20.3 +8.6 47 +21 +21 комфорт 1011.5 998.6
02 16.08 З 6 н/о н/о +22.4 +7.4 38 +23 +23 комфорт 1010.6 997.7 +16.7
01 16.08 З 6 н/о н/о +21.8 +8.3 42 +23 +23 комфорт 1011.1 998.2
03 16.08 З 6 н/о н/о +23.2 +7.3 36 +24 +24 комфорт 1009.6 996.8
04 16.08 ЮЗ 6 н/о н/о +23.7 +6.9 34 +24 +24 комфорт 1009.1 996.3
05 16.08 З 5 н/о н/о +24.6 +5.4 29 +24 +24 комфорт 1008.9 996.1
06 16.08 З 6 н/о н/о +24.3 +3.6 26 +24 +24 комфорт 1008.8 996.0
08 16.08 ЮЗ 4 н/о н/о +21.5 +0.1 24 +21 +21 комфорт 1009.8 997.0
07 16.08 З 4 н/о н/о +23.5 +2.4 25 +23 +23 комфорт 1009.2 996.4
09 16.08 ЮЗ 3 н/о н/о +18.5 -0.8 27 +19 +19 1010.6 997.7
10 16.08 ЮЗ 2 н/о н/о +17.0 -0.7 30 +17 +17 1011.3 998.4
11 16.08 ЮЗ 3 н/о н/о +16.0 -1.1 31 +16 +16 1011.9 999.0
12 16.08 ЮЗ 2 н/о н/о +14.3 -2.6 31 +14 +14 1012.3 999.4
14 16.08 З 2 н/о н/о +9.4 -1.9 45 +9 +9 1012.5 999.6 +25.4
13 16.08 ЮЗ 2 н/о н/о +11.0 -2.4 39 +11 +11 1012.4 999.5
15 16.08 штиль 0 н/о н/о +7.6 -2.4 49 +7 +7 1012.3 999.4
16 16.08 штиль 0 н/о н/о +7.3 -2.2 51 +7 +7 1012.1 999.2
17 16.08 СЗ 2 н/о н/о +6.1 -2.7 53 +5 +5 1012.0 999.1
18 16.08 СЗ 2 н/о н/о +5.4 -2.9 55 +3 +3 1012.3 999.4
20 16.08 СЗ 2 н/о н/о +4.5 -3.0 58 +2 +2 1013.4 1000.5
19 16.08 СЗ 2 н/о н/о +5.4 -2.2 58 +3 +3 1012.6 999.7
21 16.08 СЗ 2 н/о н/о +5.0 -2.3 59 +3 +3 1014.2 1001.3
22 16.08 СЗ 3 н/о н/о +11.3 -0.8 43 +10 +10 1015.0 1002.1
23 16.08 З 3 н/о н/о +15.2 -0.1 35 +15 +15 1015.5 1002.6
00 17.08 З 5 н/о н/о +17.9 +0.6 31 +18 +18 1015.8 1002.9
02 17.08 З 6 н/о н/о +20.2 -1.0 24 +20 +20 1014.6 1001.7 +4.4
01 17.08 З 6 н/о н/о +19.4 -0.1 27 +19 +19 1015.5 1002.6
03 17.08 СЗ 6 н/о н/о +21.6 -1.6 21 +21 +21 комфорт 1013.6 1000.7
04 17.08 З 5 н/о н/о +22.5 -3.0 18 +21 +21 комфорт 1012.8 999.9
05 17.08 З 6 н/о н/о +22.7 -5.2 15 +21 +21 комфорт 1012.4 999.5
06 17.08 З 5 н/о н/о +22.5 -5.4 15 +21 +21 комфорт 1012.3 999.4
08 17.08 З 3 н/о н/о +20.3 -4.8 18 +20 +20 1013.0 1000.1
07 17.08 З 4 н/о н/о +22.3 -5.6 15 +21 +21 комфорт 1012.5 999.6
09 17.08 З 2 н/о н/о +16.9 -5.5 21 +17 +17 1013.7 1000.8
10 17.08 СЗ 3 н/о н/о +13.2 -4.4 29 +13 +13 1014.6 1001.7
11 17.08 СЗ 3 н/о н/о +15.1 -5.3 24 +15 +15 1015.0 1002.1
12 17.08 СЗ 4 н/о н/о +14.8 -5.0 25 +14 +14 1015.3 1002.4
14 17.08 СЗ 4 н/о н/о +13.5 -6.1 25 +13 +13 1015.8 1002.9 +23.4
13 17.08 СЗ 4 н/о н/о +14.3 -4.9 26 +13 +13 1015.5 1002.6
15 17.08 З 4 н/о н/о +13.6 -4.5 28 +13 +13 1016.0 1003.1
16 17.08 З 4 н/о н/о +13.9 -3.8 29 +13 +13 1016.2 1003.3
17 17.08 З 5 н/о н/о +13.6 -3.2 31 +12 +12 1016.3 1003.4
18 17.08 З 4 н/о н/о +12.7 -2.7 34 +11 +11 1016.3 1003.4
20 17.08 З 5 н/о н/о +12.1 -0.4 42 +10 +10 1018.4 1005.4
19 17.08 З 5 н/о н/о +12.1 -1.8 38 +10 +10 1017.1 1004.2
21 17.08 З 4 н/о н/о +10.9 -0.2 46 +9 +9 1019.3 1006.3
22 17.08 З 4 н/о н/о +11.8 0.0 44 +10 +10 1020.4 1007.4
23 17.08 ЮЗ 6 н/о н/о +14.0 +1.0 41 +12 +12 1021.3 1008.3
00 18.08 ЮЗ 8 н/о н/о +15.2 -0.1 35 +13 +13 1021.7 1008.7
02 18.08 ЮЗ 8 н/о н/о +16.7 -1.9 28 +15 +15 1020.9 1007.9 +11.0
01 18.08 З 7 н/о н/о +16.0 -0.7 32 +15 +15 1021.5 1008.5
03 18.08 З 7 н/о н/о +17.6 -2.1 26 +17 +17 1020.1 1007.1
04 18.08 ЮЗ 7 н/о н/о +17.8 -3.0 24 +17 +17 1019.6 1006.6
05 18.08 З 9 н/о н/о +17.9 -2.9 24 +17 +17 1019.5 1006.5
06 18.08 ЮЗ 8 н/о н/о +18.5 -2.4 24 +18 +18 1019.5 1006.5
08 18.08 З 6 н/о н/о +16.2 -1.8 29 +15 +15 1020.5 1007.5
07 18.08 З 7 н/о н/о +17.6 -2.1 26 +17 +17 1019.8 1006.8
09 18.08 З 5 н/о н/о +14.8 -2.1 31 +14 +14 1021.3 1008.3
10 18.08 З 4 н/о н/о +13.7 -2.3 33 +13 +13 1022.1 1009.1
11 18.08 З 4 н/о н/о +12.6 -2.4 35 +11 +11 1022.7 1009.7
12 18.08 ЮЗ 4 н/о н/о +10.6 -2.1 41 +9 +9 1023.1 1010.1
14 18.08 ЮЗ 3 н/о н/о +9.3 -2.0 45 +7 +7 1023.3 1010.3 +19.1
13 18.08 ЮЗ 3 н/о н/о +10.8 -1.6 42 +9 +9 1023.4 1010.4
15 18.08 З 3 н/о н/о +9.7 -1.3 46 +8 +8 1023.2 1010.2
16 18.08 ЮЗ 3 н/о н/о +6.6 -2.0 54 +4 +4 1023.3 1010.3
17 18.08 ЮЗ 3 н/о н/о +8.0 -1.8 50 +6 +6 1023.2 1010.2
18 18.08 ЮЗ 3 н/о н/о +6.8 -2.1 53 +5 +5 1023.1 1010.1
20 18.08 З 2 н/о н/о +2.5 -2.4 70 -0 -0 1024.0 1011.0
19 18.08 З 2 н/о н/о +4.4 -2.4 61 +2 +2 1023.5 1010.5
21 18.08 З 3 н/о н/о +4.5 -1.1 67 +1 +1 1024.8 1011.8
22 18.08 ЮЗ 3 н/о н/о +6.9 -0.5 59 +4 +4 1025.5 1012.5
23 18.08 ЮЗ 5 н/о н/о +10.6 +1.7 54 +8 +8 1026.3 1013.2
00 19.08 ЮЗ 6 н/о н/о +12.3 +1.9 49 +10 +10 1026.4 1013.3
02 19.08 Ю 6 н/о н/о +15.5 -0.7 33 +14 +14 1025.0 1012.0 +1.8
01 19.08 ЮЗ 7 н/о н/о +13.1 -0.5 39 +11 +11 1025.8 1012.8

 

Местоположение метеостанции Bourke Airport Aws (Новый Южный Уэльс, Австралия): широта -30.03 долгота 145.95 высота над уровнем моря 108 м.

В архиве по умолчанию представлена погода в Bourke Airport Aws за последнюю неделю. Архивные данные за месяц целиком и за предыдущие месяцы, начиная с января 2011 года, Вы можете получить, выбрав интересующий диапазон дат из раскрывающегося списка и нажав кнопку "Ввод!".

Внимание! Время в таблицах - всемирное. Для получения местного времени необходимо прибавить поправку, которая в Bourke Airport Aws равна 10 ч.

Смотрите также архив погоды в соседних городах и на ближайших метеорологических станциях:

Погода в Cobar Mo (Новый Южный Уэльс, Австралия) (162 км)
Погода в Cobar Airport Aws (Новый Южный Уэльс, Австралия) (167 км)
Погода в Walgett Airport Aws (Новый Южный Уэльс, Австралия) (209 км)
Погода в Coonamble Airport (Новый Южный Уэльс, Австралия) (256 км)
Погода в Trangie Research Stn (Новый Южный Уэльс, Австралия) (289 км)
Погода в White Cliffs Aws (Новый Южный Уэльс, Австралия) (291 км)
Погода в Wilcannia Aerodrome (Новый Южный Уэльс, Австралия) (296 км)
Погода в Thargomindah Airport (Квинсленд, Австралия) (309 км)
Погода в St George Airport (Квинсленд, Австралия) (339 км)
Погода в Dubbo Airport Aws (Новый Южный Уэльс, Австралия) (347 км)

Пояснения к столбцам:

Ветер - указаны скорость ветра в м/с - средняя за 10 мин, порывы в срок и между сроками (в фигурных скобках) и направление, откуда дует ветер: С - северный, СВ - северо-восточный, В - восточный, ЮВ - юго-восточный, Ю - южный, ЮЗ - юго-западный, З - западный, СЗ - северо-западный.
Видимость - горизонтальная дальность видимости в метрах или километрах. При видимости от 1 до 10 км при отсутствии осадков обычно наблюдается дымка, при ухудшении видимости до 1 км и менее - туман. В сухую погоду видимость может ухудшаться дымом, пылью или мглою.
Явления - указаны атмосферные явления, наблюдавшиеся в срок или в последний час перед сроком; фигурными скобками обозначены явления, наблюдавшиеся между сроками (за 1-3 часа до срока); квадратными скобками обозначены град или гололедные отложения с указанием их диаметра в мм.
Облачность - указаны через наклонную черту общая и нижняя облачность в баллах и высота нижней границы облаков в метрах; квадратными скобками обозначены формы облаков: Ci - перистые, Cs - перисто-слоистые, Cc - перисто-кучевые, Ac - высококучевые, As - высокослоистые, Sc - слоисто-кучевые, Ns - слоисто-дождевые, Cu - кучевые, Cb - кучево-дождевые. Подробнее классификацию облаков см. в Атласе облаков (PDF).
T - Температура воздуха - температура, измеренная на высоте 2 м над землей.
Td - Температура точки росы - температура, при понижении до которой содержащийся в воздухе водяной пар достигнет насыщения.
f - Относительная влажность воздуха - влажноcть воздуха, измеренная на высоте 2 м над землей.
Te - Эффективная температура - температура, которую ощущает одетый по сезону человек в тени. Характеристика душности погоды. При расчете учитывается влияние влажности воздуха и скорости ветра на теплоощущения человека.
Tes - Эффективная температура на солнце - температура, которую ощущает человек, с поправкой на солнечный нагрев. Характеристика знойности погоды. Зависит от высоты солнца над горизонтом, облачности и скорости ветра. Ночью, в пасмурную погоду, а также при ветре 12 м/с и более поправка равна нулю.
P - Атмосферное давление - приведенное к уровню моря атмосферное давление.
Po - Атмосферное давление - измеренное на уровне метеостанции атмосферное давление.
Tmin - Минимальная температура - минимум температуры воздуха на высоте 2 м над землей.
Tmax - Максимальная температура - максимум температуры воздуха на высоте 2 м над землей.
R - Количество осадков - Количество выпавших осадков за период времени, мм. При наведении курсора мыши на число - период времени, за который выпало указанное количество осадков.
R24 - Количество осадков - Количество выпавших осадков за 24 часа, мм.
S - Снежный покров - Высота снежного покрова, см. При наведении курсора мыши на число - состояние снежного покрова и степень покрытия местности в баллах.